Regional Weather Roundup
Issued by NWS Charleston, SC

Home | Current Version | Previous Version | Text Only | Print | Product List | Glossary On
Versions: 1 2 3 4 5 6 7 8 9 10 11 12 13 14 15 16 17 18 19 20 21 22 23 24 25 26 27 28 29 30 31 32 33 34 35 36 37 38 39 40 41 42 43 44 45 46 47 48 49 50
000
ASUS42 KCHS 061627
RWRCHS

REGIONAL WEATHER ROUNDUP
NATIONAL WEATHER SERVICE CHARLESTON SC
1200 PM EDT MON JUL 06 2015

NOTE: "FAIR" INDICATES FEW OR NO CLOUDS BELOW 12,000 FEET WITH NO
SIGNIFICANT WEATHER AND/OR OBSTRUCTIONS TO VISIBILITY.

NOT ALL STATIONS ARE QUALITY CONTROLLED BY THE NATIONAL
WEATHER SERVICE. USE DATA WITH CAUTION...ESPECIALLY
DEWPOINT OBSERVATIONS.

SCZ027-030-031-034>040-042>050-061700-
...SOUTHEAST SOUTH CAROLINA...

CITY           SKY/WX    TMP DP  RH WIND       PRES   REMARKS
N CHARLESTON   PTSUNNY   81  71  71 VRB6      30.17S
WATERFRONT PAR   N/A     82  73  74 CALM      30.14S
MOUNT PLEASANT LGT RAIN  84  72  65 W3        30.16S
JOHNS ISLAND   PTSUNNY   84  73  70 CALM      30.16F HX  91
PINOPOLIS      NOT AVBL
MONCKS CORNER  CLOUDY    81  72  74 CALM      30.17F
SUMMERVILLE    CLOUDY    79  73  83 W3        30.18S
BEAUFORT MCAS  PTSUNNY   81  71  71 CALM      30.18S
BEAUFORT ARPT  CLOUDY    79  72  78 CALM      30.17F
HILTON HEAD IS MOSUNNY   81  72  74 CALM      30.19F
WALTERBORO     NOT AVBL
ALLENDALE      PTSUNNY   79  73  83 VRB6      30.16F

...SOUTHERN MIDLANDS AND PEE DEE...

CITY           SKY/WX    TMP DP  RH WIND       PRES   REMARKS
GEORGETOWN     NOT AVBL
KINGSTREE      NOT AVBL
ORANGEBURG     PTSUNNY   79  71  76 S3        30.17F
BARNWELL       FAIR      82  73  74 S8        30.17F
AIKEN          NOT AVBL
MANNING        CLOUDY    77  70  78 W5        30.16F
COLUMBIA       MOSUNNY   84  70  62 W5        30.14F
SUMTER         CLOUDY    78  71  78 S9        30.14F
FLORENCE       MOSUNNY   81  72  74 VRB6      30.15F
MYRTLE BEACH   MOSUNNY   86  72  62 S10       30.16F HX  92
N MYRTLE BEACH MOSUNNY   84  72  67 S15       30.15F

$$

GAZ063-065-086>088-099>101-113>116-118-119-134>141-150-061700-
...SOUTHEAST GEORGIA...

CITY           SKY/WX    TMP DP  RH WIND       PRES   REMARKS
SAVANNAH ARPT  PTSUNNY   82  70  65 VRB3      30.18S
HUNTER AAF     SUNNY     83  73  71 W7        30.16S
FORT STEWART   CLOUDY    83  71  65 NW6       30.16S
STATESBORO     NOT AVBL
SYLVANIA       MOSUNNY   83  73  72 CALM      30.18F
CLAXTON        FAIR      82  72  69 W6        30.17F

...CSRA...CENTRAL AND FAR SOUTHEAST GEORGIA...

CITY           SKY/WX    TMP DP  RH WIND       PRES   REMARKS
THOMSON        MOSUNNY   86  73  66 SW7       30.21S HX  93
AUGUSTA-BUSH   PTSUNNY   81  71  71 SW8       30.15F
AUGUSTA-DANIEL PTSUNNY   81  71  71 SW5       30.17F
SWAINSBORO     PTSUNNY   82  72  69 W3        30.19S
VIDALIA        PTSUNNY   82  68  61 SW6       30.18F
EASTMAN        CLOUDY    81  69  66 W7        30.21S
HAZLEHURST     PTSUNNY   84  71  65 SW3       30.17F
ALMA           MOSUNNY   83  71  67 VRB7      30.18F
WAYCROSS       PTSUNNY   87  76  67 W8        30.18F HX  97
JESUP          PTSUNNY   86  73  66 W6        30.18F HX  93
BAXLEY         PTSUNNY   84  70  61 W9G17     30.17F
BRUNSWICK      MOSUNNY   82  72  69 W5        30.19S
SAINT SIMONS   NOT AVBL

$$

SCZ027-028-034-036>038-045-046-048>050-GAZ119-141-061700-
...LAKE AND SUPPLEMENTAL COASTAL OBSERVATIONS...

STATION/POSITION TIME  TEMP    WIND        PRES    WAVE   SWELL
                       AIR SEA DIR/SP/G            HT/PER HT/PER/DIR
                 (UTC) (F)     (DEG/KT/KT) (MB)    (FT/S) (FT/S/D)
UPR LAKE MARION  NOT AVBL
WINYAH BAY       1500   81     230/  5     1021.0R
LAKE MURRAY      1600   81     190/  6/  7 1020.0F
ACE BASIN NERRS  1500   76     350/  2     1022.0
FORT PULASKI     1600   78 83  290/  2/  2 1022.3F
SAPELO ISLAND    1600   83     290/  4     1022.0S

$$

ANZ835-935-AMZ111-154-330-350-352-354-370-450-454-472-061700-
...C-MAN AND BUOY OBSERVATIONS...

STATION/POSITION TIME  TEMP    WIND        PRES    WAVE   SWELL
                       AIR SEA DIR/SP/G            HT/PER HT/PER/DIR
                 (UTC) (F)     (DEG/KT/KT) (MB)    (FT/S) (FT/S/D)
BUOY 41004       1550   80 83  250/  8/ 10 1020.9R   3/ 9   3/ 9
BUOY 41008       1550   75 79  240/  4/  6 1022.4R   2/ 9   2/110/ 9
FOLLY BEACH CMAN 1600   81     190/  6/  7 1021.5F
CAPERS NEARSHORE 1508   80     240/  6/  8 1021.6S
FRIPP NEARSHORE  1500   78     360/  2/  4 1021.6R


STATION/POSITION TIME  TEMP    WIND        PRES    WAVE   SWELL
                       AIR SEA DIR/SP/G            HT/PER HT/PER/DIR
                 (UTC) (F)     (DEG/KT/KT) (MB)    (FT/S) (FT/S/D)
5E ST. MARYS GA  1521      77                N/A     2/ 8
FRYING PAN BUOY  1550   80 79  240/  8/ 10 1021.8F   3/ 5   3/190/ 5
BUOY 41025       1550   80 83  190/ 12/ 16 1021.8R   3/ 5   2/120/ 9
CAPE LOOKOUT NC  1600   80     180/  7/  9 1021.3F
BUOY 41002       1550   76 80  190/  6/ 10 1023.9F   3/ 9   3/130/ 9
BUOY 41010       1520   82 84  170/  8/ 10 1023.1R
ST AUGUSTINE FL  1600   74 71  110/  6/  6 1023.5R


$$



USA.gov is the U.S. government's official web portal to all federal, state and local government web resources and services.